Indianapolis, IN

2:57 PM EDT on September 18, 2019 (GMT -0400)
Indianapolis International

Weather History for KIND - August, 2019

Change the Weather History Date:

Wednesday, August 21, 2019

  Actual Average Record
Temperature  
Mean Temperature 77 °F 74 °F  
Max Temperature 85 °F 84 °F 100 °F (1936)
Min Temperature 68 °F 64 °F 47 °F (1950)
Degree Days  
Heating Degree Days 0 0  
Month to date heating degree days 0 0  
Since 1 June heating degree days 9 17  
Since 1 July heating degree days 0 1  
Cooling Degree Days 12 9  
Month to date cooling degree days 248 205  
Year to date cooling degree days 977 838  
Since 1 June cooling degree days 866 754  
Growing Degree Days 26 (Base 50)    
Moisture  
Dew Point 68 °F    
Average Humidity 79    
Maximum Humidity 100    
Minimum Humidity 58    
Precipitation  
Precipitation 0.00 in 0.10 in 1.23 in (1923)
Month to date precipitation 1.87 2.13  
Year to date precipitation 34.88 28.33  
Snow  
Snow 0.00 in 0.00 in 0.00 in ()
Month to date snowfall 0.0 0.0  
Since 1 June snowfall 0.0 0.0  
Since 1 July snowfall 0.0 0.0  
Snow Depth 0.00 in    
Sea Level Pressure  
Sea Level Pressure 29.98 in    
Wind  
Wind Speed 8 mph (WSW)    
Max Wind Speed 14 mph    
Max Gust Speed 18 mph    
Visibility 8 miles    
Events      
T = Trace of Precipitation, MM = Missing Value Source: NWS Daily Summary

Daily Weather History Graph

Daily Weather History Graph

Search for Another Location

Airport or City:

Astronomy

Aug. 21, 2019 Rise Set
Actual Time 7:02 AM EDT 8:33 PM EDT
Civil Twilight 6:34 AM EDT 9:01 PM EDT
Nautical Twilight 6:00 AM EDT 9:35 PM EDT
Astronomical Twilight 5:23 AM EDT 10:11 PM EDT
Moon 11:51 PM EDT (8/21) 12:37 PM EDT (8/21)
Length of Visible Light 14h 27m
Length of Day
13h 30m
Waning Gibbous, 69% of the Moon is Illuminated
Aug 21
Waning Gibbous
Aug 23
Last Quarter
Aug 30
New
Sep 5
First Quarter
Sep 14
Full

Hourly Weather History & Observations

Time (EDT) Temp. Heat Index Dew Point Humidity Pressure Visibility Wind Dir Wind Speed Gust Speed Precip Events Conditions
12:54 AM 69.1 °F - 66.9 °F 93% 29.99 in 10.0 mi SW 6.9 mph - N/A   Mostly Cloudy
1:54 AM 69.1 °F - 66.9 °F 93% 29.98 in 10.0 mi SW 9.2 mph - N/A   Scattered Clouds
2:54 AM 68.0 °F - 66.9 °F 96% 29.99 in 10.0 mi SW 8.1 mph - N/A   Partly Cloudy
3:16 AM 68.0 °F - 66.9 °F 96% 30.00 in 10.0 mi SW 6.9 mph - N/A   Scattered Clouds
4:54 AM 68.0 °F - 66.9 °F 96% 29.98 in 10.0 mi SW 6.9 mph - N/A   Overcast
5:44 AM 68.0 °F - 66.9 °F 96% 29.98 in 9.0 mi SW 8.1 mph - N/A   Overcast
5:54 AM 68.0 °F - 68.0 °F 100% 29.96 in 8.0 mi SW 8.1 mph - N/A   Overcast
6:05 AM 68.0 °F - 68.0 °F 100% 29.97 in 1.0 mi SW 8.1 mph - N/A   Overcast
6:54 AM 68.0 °F - 68.0 °F 100% 29.96 in 1.0 mi WSW 9.2 mph - N/A   Overcast
7:30 AM 68.0 °F - 68.0 °F 100% 29.97 in 0.5 mi SW 8.1 mph - N/A   Overcast
7:54 AM 68.0 °F - 68.0 °F 100% 29.97 in 0.5 mi SW 8.1 mph - N/A   Overcast
8:54 AM 70.0 °F - 69.1 °F 97% 29.97 in 0.5 mi WSW 6.9 mph - N/A   Overcast
9:04 AM 69.1 °F - 68.0 °F 96% 29.99 in 0.5 mi SW 8.1 mph - N/A   Overcast
9:50 AM 71.6 °F - 69.8 °F 94% 30.01 in 6.0 mi West 5.8 mph - N/A   Overcast
9:54 AM 71.1 °F - 69.1 °F 93% 29.99 in 6.0 mi WSW 4.6 mph - N/A   Overcast
10:54 AM 73.0 °F - 69.1 °F 87% 30.00 in 9.0 mi SW 9.2 mph - N/A   Mostly Cloudy
11:54 AM 75.0 °F - 69.1 °F 82% 30.01 in 10.0 mi SW 11.5 mph - N/A   Mostly Cloudy
12:54 PM 78.1 °F - 69.1 °F 74% 30.00 in 10.0 mi SW 10.4 mph - N/A   Mostly Cloudy
1:54 PM 80.1 °F 82.7 °F 68.0 °F 67% 30.00 in 10.0 mi West 5.8 mph - N/A   Scattered Clouds
2:54 PM 82.0 °F 84.9 °F 68.0 °F 62% 30.00 in 10.0 mi WSW 10.4 mph - N/A   Scattered Clouds
3:54 PM 84.0 °F 87.8 °F 69.1 °F 61% 29.98 in 10.0 mi West 9.2 mph - N/A   Scattered Clouds
4:54 PM 82.9 °F 86.5 °F 69.1 °F 63% 29.98 in 10.0 mi West 12.7 mph - N/A   Mostly Cloudy
5:54 PM 84.9 °F 88.8 °F 69.1 °F 59% 29.96 in 10.0 mi NW 9.2 mph - N/A   Mostly Cloudy
6:54 PM 82.9 °F 85.8 °F 68.0 °F 60% 29.94 in 10.0 mi WNW 5.8 mph - N/A   Scattered Clouds
7:54 PM 82.0 °F 84.5 °F 66.9 °F 60% 29.91 in 10.0 mi ESE 4.6 mph - N/A   Scattered Clouds
8:54 PM 77.0 °F - 71.1 °F 82% 29.93 in 10.0 mi SSW 8.1 mph - N/A   Mostly Cloudy
9:54 PM 75.9 °F - 71.1 °F 85% 29.96 in 10.0 mi WSW 9.2 mph - N/A   Mostly Cloudy
10:54 PM 75.0 °F - 71.1 °F 87% 29.98 in 10.0 mi SW 6.9 mph - N/A   Mostly Cloudy
11:54 PM 73.9 °F - 70.0 °F 87% 29.96 in 10.0 mi WSW 5.8 mph - N/A   Overcast